When you browse on this site, cookies collect data to enhance your experience and personalize the content and advertising you see.
Visit our Privacy Policy to learn more. By continuing to use the site, you agree to this use of cookies and data.
EN

Hourly Weather Poplawy

Today, 5 August, Wednesday

Time Temperature Precipitation Wind Pressure Humidity
00:00 +17°C° 0 mm 4 mps 744 mmHg 94%
01:00 +17°C° 0 mm 4 mps 744 mmHg 94%
02:00 +15°C° 0 mm 5 mps 745 mmHg 96%
03:00 +15°C° 0 mm 4 mps 745 mmHg 96%
04:00 +14°C° 0 mm 4 mps 746 mmHg 95%
05:00 +13°C° 0 mm 4 mps 746 mmHg 95%
06:00 +14°C° 0 mm 4 mps 746 mmHg 91%
07:00 +15°C° 0 mm 4 mps 747 mmHg 87%
08:00 +15°C° 0 mm 4 mps 748 mmHg 82%
09:00 +18°C° 0 mm 4 mps 748 mmHg 75%
10:00 +20°C° 0 mm 4 mps 748 mmHg 67%
11:00 +21°C° 0 mm 4 mps 748 mmHg 60%
12:00 +22°C° 0 mm 4 mps 749 mmHg 56%
13:00 +24°C° 0 mm 3 mps 749 mmHg 53%
14:00 +24°C° 0 mm 3 mps 749 mmHg 50%
15:00 +24°C° 0 mm 3 mps 749 mmHg 51%
16:00 +23°C° 0 mm 4 mps 749 mmHg 52%
17:00 +23°C° 0 mm 4 mps 749 mmHg 54%
18:00 +21°C° 0 mm 4 mps 749 mmHg 59%
19:00 +20°C° 0 mm 3 mps 749 mmHg 64%
20:00 +19°C° 0 mm 3 mps 749 mmHg 69%
21:00 +19°C° 0 mm 3 mps 750 mmHg 69%
22:00 +18°C° 0 mm 3 mps 750 mmHg 69%
23:00 +18°C° 0 mm 3 mps 750 mmHg 68%

Tomorrow, 6 August, Thursday

Time Temperature Precipitation Wind Pressure Humidity
00:00 +18°C° 0 mm 3 mps 750 mmHg 69%
01:00 +17°C° 0 mm 3 mps 751 mmHg 70%
02:00 +17°C° 0 mm 4 mps 751 mmHg 71%
03:00 +17°C° 0 mm 3 mps 751 mmHg 73%
04:00 +16°C° 0 mm 3 mps 751 mmHg 75%
05:00 +16°C° 0 mm 3 mps 750 mmHg 77%
06:00 +17°C° 0 mm 3 mps 751 mmHg 76%
07:00 +18°C° 0 mm 4 mps 751 mmHg 75%
08:00 +19°C° 0 mm 4 mps 751 mmHg 74%
09:00 +21°C° 0 mm 4 mps 752 mmHg 71%
10:00 +22°C° 0 mm 4 mps 752 mmHg 68%
11:00 +25°C° 0 mm 4 mps 752 mmHg 65%
12:00 +26°C° 0 mm 4 mps 752 mmHg 63%
13:00 +26°C° 0 mm 4 mps 752 mmHg 62%
14:00 +27°C° 0 mm 4 mps 752 mmHg 61%
15:00 +27°C° 0 mm 4 mps 752 mmHg 61%
16:00 +27°C° 0 mm 4 mps 752 mmHg 62%
17:00 +27°C° 0 mm 5 mps 752 mmHg 63%
18:00 +26°C° 0 mm 4 mps 752 mmHg 69%
19:00 +23°C° 0 mm 4 mps 752 mmHg 74%
20:00 +22°C° 0 mm 4 mps 752 mmHg 80%
21:00 +21°C° 0 mm 3 mps 752 mmHg 81%
22:00 +20°C° 0 mm 3 mps 753 mmHg 81%
23:00 +19°C° 0 mm 3 mps 753 mmHg 82%

Day after tomorrow, 7 August, Friday

Time Temperature Precipitation Wind Pressure Humidity
00:00 +19°C° 0 mm 3 mps 753 mmHg 81%
01:00 +18°C° 0 mm 3 mps 753 mmHg 81%
02:00 +18°C° 0 mm 3 mps 753 mmHg 81%
03:00 +17°C° 0 mm 3 mps 753 mmHg 80%
04:00 +17°C° 0 mm 3 mps 753 mmHg 80%
05:00 +17°C° 0 mm 3 mps 753 mmHg 79%
06:00 +18°C° 0 mm 3 mps 753 mmHg 77%
07:00 +19°C° 0 mm 3 mps 754 mmHg 74%
08:00 +20°C° 0 mm 3 mps 754 mmHg 72%
09:00 +22°C° 0 mm 4 mps 754 mmHg 69%
10:00 +25°C° 0 mm 4 mps 754 mmHg 66%
11:00 +27°C° 0 mm 4 mps 754 mmHg 63%
12:00 +28°C° 0 mm 4 mps 754 mmHg 60%
13:00 +28°C° 0 mm 4 mps 754 mmHg 58%
14:00 +29°C° 0 mm 4 mps 753 mmHg 55%
15:00 +29°C° 0 mm 4 mps 753 mmHg 55%
16:00 +28°C° 0 mm 4 mps 753 mmHg 56%
17:00 +28°C° 0 mm 4 mps 753 mmHg 56%
18:00 +26°C° 0 mm 4 mps 753 mmHg 61%
19:00 +25°C° 0 mm 3 mps 753 mmHg 66%
20:00 +22°C° 0 mm 3 mps 752 mmHg 71%
21:00 +21°C° 0 mm 3 mps 753 mmHg 74%
22:00 +20°C° 0 mm 3 mps 753 mmHg 77%
23:00 +20°C° 0 mm 3 mps 753 mmHg 80%

8 August, Saturday

Time Temperature Precipitation Wind Pressure Humidity
00:00 +19°C° 0 mm 3 mps 753 mmHg 82%
01:00 +19°C° 0 mm 3 mps 753 mmHg 84%
02:00 +18°C° 0 mm 3 mps 753 mmHg 86%
03:00 +18°C° 0 mm 3 mps 753 mmHg 87%
04:00 +17°C° 0 mm 3 mps 752 mmHg 89%
05:00 +17°C° 0 mm 3 mps 752 mmHg 90%
06:00 +18°C° 0 mm 3 mps 752 mmHg 85%
07:00 +20°C° 0 mm 3 mps 753 mmHg 80%
08:00 +21°C° 0 mm 3 mps 753 mmHg 75%
09:00 +24°C° 0 mm 3 mps 753 mmHg 69%
10:00 +25°C° 0 mm 3 mps 753 mmHg 63%
11:00 +27°C° 0 mm 4 mps 753 mmHg 57%
12:00 +28°C° 0 mm 3 mps 752 mmHg 54%
13:00 +28°C° 0 mm 3 mps 752 mmHg 51%
14:00 +29°C° 0 mm 3 mps 752 mmHg 49%
15:00 +29°C° 0 mm 3 mps 751 mmHg 49%
16:00 +29°C° 0 mm 3 mps 751 mmHg 50%
17:00 +29°C° 0 mm 2 mps 751 mmHg 50%
18:00 +27°C° 0 mm 2 mps 751 mmHg 56%
19:00 +25°C° 0 mm 2 mps 751 mmHg 62%
20:00 +24°C° 0 mm 2 mps 750 mmHg 68%
21:00 +23°C° 0 mm 2 mps 750 mmHg 70%
22:00 +21°C° 0 mm 2 mps 750 mmHg 73%
23:00 +20°C° 0 mm 2 mps 751 mmHg 75%

9 August, Sunday

Time Temperature Precipitation Wind Pressure Humidity
00:00 +21°C° 0 mm 1 mps 750 mmHg 77%
01:00 +20°C° 0 mm 1 mps 750 mmHg 79%
02:00 +20°C° 0 mm 1 mps 750 mmHg 81%
03:00 +19°C° 0 mm 1 mps 750 mmHg 83%
04:00 +19°C° 0 mm 1 mps 750 mmHg 85%
05:00 +19°C° 0 mm 1 mps 750 mmHg 87%
06:00 +20°C° 0 mm 1 mps 750 mmHg 82%
07:00 +22°C° 0 mm 1 mps 750 mmHg 77%
08:00 +23°C° 0 mm 1 mps 750 mmHg 72%
09:00 +25°C° 0 mm 2 mps 750 mmHg 67%
10:00 +26°C° 0 mm 2 mps 750 mmHg 62%
11:00 +27°C° 0 mm 2 mps 750 mmHg 56%
12:00 +28°C° 0 mm 2 mps 750 mmHg 54%
13:00 +28°C° 0 mm 3 mps 749 mmHg 52%
14:00 +29°C° 0 mm 3 mps 749 mmHg 49%
15:00 +29°C° 0 mm 3 mps 749 mmHg 50%
16:00 +28°C° 0 mm 3 mps 749 mmHg 52%
17:00 +28°C° 0 mm 3 mps 749 mmHg 53%
18:00 +27°C° 0.1 mm 3 mps 748 mmHg 59%
19:00 +25°C° 0.1 mm 2 mps 748 mmHg 66%
20:00 +23°C° 0.1 mm 2 mps 748 mmHg 72%
21:00 +21°C° 0 mm 2 mps 748 mmHg 76%
22:00 +20°C° 0 mm 2 mps 748 mmHg 79%
23:00 +20°C° 0 mm 2 mps 748 mmHg 82%

10 August, Monday

Time Temperature Precipitation Wind Pressure Humidity
00:00 +19°C° 0 mm 2 mps 748 mmHg 85%
01:00 +18°C° 0 mm 2 mps 748 mmHg 87%
02:00 +18°C° 0 mm 2 mps 748 mmHg 90%
03:00 +18°C° 0 mm 2 mps 748 mmHg 91%
04:00 +17°C° 0 mm 2 mps 748 mmHg 92%
05:00 +17°C° 0 mm 2 mps 748 mmHg 93%
06:00 +19°C° 0 mm 2 mps 748 mmHg 88%
07:00 +20°C° 0 mm 2 mps 749 mmHg 83%
08:00 +21°C° 0 mm 2 mps 749 mmHg 78%
09:00 +24°C° 0 mm 2 mps 749 mmHg 71%
10:00 +25°C° 0 mm 2 mps 749 mmHg 65%
11:00 +27°C° 0 mm 3 mps 749 mmHg 58%
12:00 +27°C° 0.1 mm 3 mps 749 mmHg 55%
13:00 +28°C° 0.1 mm 3 mps 748 mmHg 52%
14:00 +29°C° 0.1 mm 3 mps 748 mmHg 49%
15:00 +28°C° 0.1 mm 2 mps 748 mmHg 50%
16:00 +28°C° 0.1 mm 2 mps 748 mmHg 52%
17:00 +28°C° 0.1 mm 2 mps 748 mmHg 53%
18:00 +27°C° 0.1 mm 2 mps 748 mmHg 59%
19:00 +25°C° 0.1 mm 2 mps 748 mmHg 65%
20:00 +24°C° 0.1 mm 2 mps 748 mmHg 70%
21:00 +23°C° 0 mm 2 mps 748 mmHg 73%
22:00 +21°C° 0 mm 2 mps 748 mmHg 76%
23:00 +21°C° 0 mm 1 mps 748 mmHg 80%
Show more